| time (UTC) | temp F | wind direction | speed MPH | gust MPH | rain 1hr in | rain 24hr in | rain mn in | humidity % | barometer mb |
| 20260509054502 | 37 | 261 | 0.0 | 1.0 | 0.00 | 0.00 | 0.00 | 82 | 1014.8 |
| 20260509053029 | 38 | 261 | 0.0 | 1.0 | 0.00 | 0.00 | 0.00 | 82 | 1014.7 |
| 20260509051549 | 38 | 261 | 0.0 | 1.0 | 0.00 | 0.00 | 0.00 | 81 | 1014.5 |
| 20260509050009 | 39 | 261 | 0.0 | 1.0 | 0.00 | 0.00 | 0.00 | 80 | 1014.5 |
| 20260509044540 | 39 | 261 | 0.0 | 2.0 | 0.00 | 0.00 | 0.00 | 79 | 1014.5 |
| 20260509043102 | 39 | 261 | 0.0 | 1.0 | 0.00 | 0.00 | 0.00 | 77 | 1014.5 |
| 20260509041515 | 40 | 261 | 0.0 | 1.0 | 0.00 | 0.00 | 0.00 | 76 | 1014.3 |
| 20260509040041 | 41 | 261 | 0.0 | 1.0 | 0.00 | 0.00 | 0.00 | 75 | 1014.2 |
| 20260509034502 | 41 | 261 | 0.0 | 1.0 | 0.00 | 0.00 | 0.00 | 74 | 1014.1 |
| 20260509033030 | 42 | 261 | 0.0 | 2.0 | 0.00 | 0.00 | 0.00 | 73 | 1014.1 |
| 20260509031558 | 42 | 261 | 0.0 | 1.0 | 0.00 | 0.00 | 0.00 | 70 | 1013.9 |
| 20260509030020 | 43 | 261 | 0.0 | 0.0 | 0.00 | 0.00 | 0.00 | 68 | 1013.8 |
| 20260509024537 | 44 | 261 | 0.0 | 1.0 | 0.00 | 0.00 | 0.00 | 66 | 1013.7 |
| 20260509023009 | 45 | 261 | 0.0 | 1.0 | 0.00 | 0.00 | 0.00 | 64 | 1013.6 |
| 20260509021524 | 46 | 261 | 0.0 | 1.0 | 0.00 | 0.00 | 0.00 | 62 | 1013.5 |
| 20260509020048 | 47 | 261 | 0.0 | 1.0 | 0.00 | 0.00 | 0.00 | 60 | 1013.2 |
| 20260509014505 | 49 | 261 | 0.0 | 1.0 | 0.00 | 0.00 | 0.00 | 57 | 1013.1 |
| 20260509013045 | 50 | 261 | 0.0 | 2.0 | 0.00 | 0.00 | 0.00 | 52 | 1012.8 |
| 20260509011547 | 50 | 269 | 0.0 | 3.0 | 0.00 | 0.00 | 0.00 | 51 | 1012.6 |
| 20260509010013 | 51 | 299 | 1.0 | 7.0 | 0.00 | 0.00 | 0.00 | 49 | 1012.3 |
| 20260509004536 | 52 | 276 | 2.0 | 5.0 | 0.00 | 0.00 | 0.00 | 47 | 1011.9 |
| 20260509003049 | 52 | 304 | 4.0 | 10.0 | 0.00 | 0.00 | 0.00 | 45 | 1011.6 |
| 20260509001513 | 53 | 288 | 2.0 | 9.0 | 0.00 | 0.00 | 0.00 | 44 | 1011.4 |
| 20260509000029 | 53 | 328 | 2.0 | 4.0 | 0.00 | 0.00 | 0.00 | 43 | 1011.1 |
| 20260508234558 | 54 | 18 | 6.0 | 14.0 | 0.00 | 0.00 | 0.00 | 40 | 1010.9 |
| 20260508233017 | 55 | 315 | 7.0 | 16.0 | 0.00 | 0.00 | 0.00 | 38 | 1010.5 |
| 20260508231551 | 56 | 323 | 3.0 | 14.0 | 0.00 | 0.00 | 0.00 | 35 | 1010.3 |
| 20260508230024 | 57 | 274 | 6.0 | 16.0 | 0.00 | 0.00 | 0.00 | 35 | 1010.1 |
| 20260508224555 | 57 | 284 | 5.0 | 13.0 | 0.00 | 0.00 | 0.00 | 35 | 1009.8 |
| 20260508223055 | 57 | 289 | 5.0 | 10.0 | 0.00 | 0.00 | 0.00 | 34 | 1009.9 |
| 20260508221525 | 58 | 288 | 4.0 | 15.0 | 0.00 | 0.00 | 0.00 | 33 | 1009.8 |
| 20260508220043 | 59 | 269 | 1.0 | 10.0 | 0.00 | 0.00 | 0.00 | 33 | 1009.8 |
| 20260508214511 | 59 | 305 | 7.0 | 13.0 | 0.00 | 0.00 | 0.00 | 32 | 1009.6 |
| 20260508213044 | 59 | 286 | 8.0 | 14.0 | 0.00 | 0.00 | 0.00 | 33 | 1009.6 |
| 20260508211559 | 61 | 270 | 3.0 | 13.0 | 0.00 | 0.00 | 0.00 | 33 | 1009.4 |
| 20260508211501 | 61 | 236 | 2.0 | 13.0 | 0.00 | 0.00 | 0.00 | 32 | 1009.4 |
| 20260508210031 | 59 | 306 | 3.0 | 13.0 | 0.00 | 0.00 | 0.00 | 32 | 1009.3 |
| 20260508204553 | 59 | 279 | 3.0 | 7.0 | 0.00 | 0.00 | 0.00 | 33 | 1009.3 |
| 20260508203019 | 58 | 309 | 3.0 | 11.0 | 0.00 | 0.00 | 0.00 | 33 | 1009.3 |
| 20260508201542 | 59 | 271 | 3.0 | 16.0 | 0.00 | 0.00 | 0.00 | 35 | 1009.2 |
| 20260508200014 | 59 | 298 | 2.0 | 14.0 | 0.00 | 0.00 | 0.00 | 35 | 1009.3 |
| 20260508194532 | 60 | 264 | 6.0 | 14.0 | 0.00 | 0.00 | 0.00 | 37 | 1009.3 |
| 20260508193128 | 61 | 257 | 5.0 | 14.0 | 0.00 | 0.00 | 0.00 | 35 | 1009.3 |
| 20260508191517 | 60 | 279 | 5.0 | 14.0 | 0.00 | 0.00 | 0.00 | 36 | 1009.3 |
| 20260508190045 | 59 | 303 | 6.0 | 14.0 | 0.00 | 0.00 | 0.00 | 34 | 1009.4 |
| 20260508184513 | 59 | 252 | 3.0 | 14.0 | 0.00 | 0.00 | 0.00 | 33 | 1009.3 |
| 20260508183040 | 60 | 277 | 7.0 | 16.0 | 0.00 | 0.00 | 0.00 | 31 | 1009.1 |
| 20260508181602 | 61 | 290 | 6.0 | 16.0 | 0.00 | 0.00 | 0.00 | 33 | 1009.2 |
| 20260508180028 | 59 | 296 | 6.0 | 14.0 | 0.00 | 0.00 | 0.00 | 35 | 1009.2 |
| 20260508174608 | 58 | 234 | 4.0 | 16.0 | 0.00 | 0.00 | 0.00 | 35 | 1009.3 |
| 20260508173014 | 59 | 296 | 6.0 | 11.0 | 0.00 | 0.00 | 0.00 | 43 | 1009.4 |
| 20260508171604 | 58 | 266 | 7.0 | 17.0 | 0.00 | 0.00 | 0.00 | 36 | 1009.4 |
| 20260508170056 | 59 | 250 | 9.0 | 17.0 | 0.00 | 0.00 | 0.00 | 37 | 1009.3 |
| 20260508164524 | 57 | 248 | 4.0 | 14.0 | 0.00 | 0.00 | 0.00 | 38 | 1009.4 |
| 20260508163040 | 58 | 329 | 3.0 | 13.0 | 0.00 | 0.00 | 0.00 | 38 | 1009.3 |
| 20260508161508 | 58 | 309 | 4.0 | 13.0 | 0.00 | 0.00 | 0.00 | 41 | 1009.3 |
| 20260508160032 | 58 | 244 | 3.0 | 10.0 | 0.00 | 0.00 | 0.00 | 39 | 1009.4 |
| 20260508154552 | 56 | 268 | 4.0 | 12.0 | 0.00 | 0.00 | 0.00 | 39 | 1009.8 |
| 20260508153021 | 59 | 252 | 5.0 | 14.0 | 0.00 | 0.00 | 0.00 | 36 | 1009.8 |
| 20260508151541 | 58 | 278 | 1.0 | 14.0 | 0.00 | 0.00 | 0.00 | 38 | 1009.9 |
| 20260508150056 | 58 | 215 | 4.0 | 14.0 | 0.00 | 0.00 | 0.00 | 38 | 1010.0 |
| 20260508144514 | 58 | 311 | 8.0 | 15.0 | 0.00 | 0.00 | 0.00 | 39 | 1010.1 |
| 20260508143038 | 56 | 282 | 4.0 | 12.0 | 0.00 | 0.00 | 0.00 | 41 | 1010.2 |
| 20260508141556 | 56 | 300 | 5.0 | 14.0 | 0.00 | 0.00 | 0.00 | 37 | 1010.4 |
| 20260508140024 | 57 | 279 | 5.0 | 12.0 | 0.00 | 0.00 | 0.00 | 39 | 1010.3 |
| 20260508134556 | 56 | 277 | 6.0 | 12.0 | 0.00 | 0.00 | 0.00 | 38 | 1010.4 |
| 20260508133014 | 58 | 259 | 2.0 | 10.0 | 0.00 | 0.00 | 0.00 | 37 | 1010.4 |
| 20260508131536 | 57 | 272 | 6.0 | 12.0 | 0.00 | 0.00 | 0.00 | 38 | 1010.5 |
| 20260508130050 | 56 | 267 | 4.0 | 12.0 | 0.00 | 0.00 | 0.00 | 41 | 1010.7 |
| 20260508124506 | 54 | 283 | 4.0 | 11.0 | 0.00 | 0.00 | 0.00 | 42 | 1010.5 |
| 20260508123024 | 54 | 250 | 3.0 | 8.0 | 0.00 | 0.00 | 0.00 | 45 | 1010.6 |
| 20260508121536 | 52 | 286 | 1.0 | 6.0 | 0.00 | 0.00 | 0.00 | 47 | 1010.5 |
| 20260508120100 | 51 | 297 | 2.0 | 7.0 | 0.00 | 0.00 | 0.00 | 49 | 1010.7 |
| 20260508114522 | 49 | 360 | 0.0 | 2.0 | 0.00 | 0.00 | 0.00 | 58 | 1010.7 |
| 20260508113046 | 47 | 360 | 0.0 | 2.0 | 0.00 | 0.00 | 0.00 | 61 | 1010.6 |
| 20260508111603 | 44 | 355 | 0.0 | 1.0 | 0.00 | 0.00 | 0.00 | 76 | 1010.6 |
| 20260508110022 | 40 | 355 | 0.0 | 1.0 | 0.00 | 0.00 | 0.00 | 83 | 1010.5 |
| 20260508104539 | 38 | 355 | 0.0 | 1.0 | 0.00 | 0.00 | 0.00 | 85 | 1010.5 |
| 20260508103058 | 37 | 355 | 0.0 | 1.0 | 0.00 | 0.00 | 0.00 | 86 | 1010.4 |
| 20260508101525 | 36 | 355 | 0.0 | 0.0 | 0.00 | 0.00 | 0.00 | 85 | 1010.2 |
| 20260508100042 | 36 | 355 | 1.0 | 2.0 | 0.00 | 0.00 | 0.00 | 86 | 1009.8 |
| 20260508094508 | 35 | 355 | 0.0 | 1.0 | 0.00 | 0.00 | 0.00 | 86 | 1009.9 |
| 20260508093032 | 35 | 355 | 0.0 | 0.0 | 0.00 | 0.00 | 0.00 | 86 | 1009.8 |
| 20260508091617 | 35 | 355 | 0.0 | 0.0 | 0.00 | 0.00 | 0.00 | 85 | 1009.7 |
| 20260508090018 | 35 | 355 | 0.0 | 2.0 | 0.00 | 0.00 | 0.00 | 85 | 1009.6 |
| 20260508084541 | 35 | 355 | 0.0 | 1.0 | 0.00 | 0.00 | 0.00 | 85 | 1009.6 |
| 20260508083059 | 35 | 355 | 0.0 | 2.0 | 0.00 | 0.00 | 0.00 | 86 | 1009.6 |
| 20260508083011 | 35 | 355 | 0.0 | 2.0 | 0.00 | 0.00 | 0.00 | 86 | 1009.6 |
| 20260508081523 | 35 | 355 | 0.0 | 0.0 | 0.00 | 0.00 | 0.00 | 85 | 1009.3 |
| 20260508080058 | 36 | 355 | 0.0 | 2.0 | 0.00 | 0.02 | 0.00 | 84 | 1009.2 |
| 20260508074513 | 36 | 355 | 0.0 | 1.0 | 0.00 | 0.02 | 0.00 | 83 | 1008.7 |
| 20260508073038 | 37 | 355 | 0.0 | 1.0 | 0.00 | 0.02 | 0.00 | 83 | 1008.6 |
| 20260508071557 | 37 | 355 | 0.0 | 1.0 | 0.00 | 0.02 | 0.00 | 82 | 1008.4 |
| 20260508070025 | 38 | 355 | 0.0 | 1.0 | 0.00 | 0.02 | 0.00 | 81 | 1008.3 |
| 20260508064549 | 38 | 355 | 0.0 | 2.0 | 0.00 | 0.02 | 0.00 | 82 | 1008.4 |
| 20260508063012 | 38 | 333 | 0.0 | 0.0 | 0.00 | 0.02 | 0.00 | 79 | 1008.3 |
| 20260508061535 | 39 | 333 | 0.0 | 1.0 | 0.00 | 0.02 | 0.00 | 77 | 1008.4 |
| 20260508060003 | 40 | 333 | 0.0 | 1.0 | 0.00 | 0.02 | 0.00 | 75 | 1008.4 |